User: anonymous   Login
Location: Unspecified
(0.0000°N, 0.0000°E)
Time: 07:31:37
(UTC+00:00)
Language:

APRIZESAT 8 - Orbit

View from above orbital plane
View from above orbital plane
View from above satellite
View from above satellite

Ground track
Ground track

The orbit data is extracted from the following two-line orbital elements,

1 39425U 13066K   17148.68877331 +.00000093 +00000-0 +18439-4 0  9994
2 39425 097.6299 193.8466 0051292 331.6341 028.2081 14.80940492190017
Epoch (UTC): 28 May 2017 16:31:50
Eccentricity: 0.0051292
inclination: 97.6299°
perigee height: 590 km
apogee height: 662 km
right ascension of ascending node: 193.8466°
argument of perigee: 331.6341°
revolutions per day: 14.80940492
mean anomaly at epoch: 28.2081°
orbit number at epoch: 19001

The dashed part of the orbit path shows where the satellite is in the earth's shadow,  

DLR